VA5EVR-13 Weather Reports


Display with metric or nautical units.
time (UTC)temp
F
wind
direction
speed
MPH
gust
MPH
rain 1hr
in
rain 24hr
in
rain mn
in
humidity
%
barometer
mb
20260504024012 50 22 11.0 11.0 0.00 0.00 0.00 59 88.8
20260504023013 51 45 20.0 20.0 0.00 0.00 0.00 56 88.8
20260504022012 52 22 24.0 24.0 0.00 0.00 0.00 50 88.8
20260504021012 53 0 16.0 16.0 0.00 0.00 0.00 48 88.8
20260504020012 53 0 18.0 18.0 0.00 0.00 0.00 48 88.8
20260504015011 54 22 17.0 17.0 0.00 0.00 0.00 47 88.8
20260504014012 54 338 18.0 18.0 0.00 0.00 0.00 50 88.8
20260504013012 54 315 18.0 18.0 0.00 0.00 0.00 50 88.8
20260504012011 54 315 17.0 17.0 0.00 0.00 0.00 50 88.8
20260504011012 55 315 26.0 26.0 0.00 0.00 0.00 47 88.8
20260504010011 56 338 25.0 25.0 0.00 0.00 0.00 44 88.8
20260504005011 56 0 16.0 16.0 0.00 0.00 0.00 43 88.8
20260504004012 57 0 22.0 22.0 0.00 0.00 0.00 44 88.8
20260504003012 58 338 21.0 21.0 0.00 0.00 0.00 43 88.8
20260504002012 59 0 25.0 25.0 0.00 0.00 0.00 41 88.8
20260504001011 60 315 20.0 20.0 0.00 0.00 0.00 41 88.8
20260504000012 60 315 25.0 25.0 0.00 0.00 0.00 41 88.8
20260503235011 60 292 19.0 19.0 0.00 0.00 0.00 41 88.8
20260503234011 61 338 26.0 26.0 0.00 0.00 0.00 40 88.8
20260503233012 61 22 21.0 21.0 0.00 0.00 0.00 38 88.8
20260503232011 62 315 27.0 27.0 0.00 0.00 0.00 37 88.8
20260503231011 62 0 29.0 29.0 0.00 0.00 0.00 37 88.8
20260503230012 63 315 28.0 28.0 0.00 0.00 0.00 36 88.8
20260503225011 63 22 34.0 34.0 0.00 0.00 0.00 37 88.8
20260503224012 65 315 28.0 28.0 0.00 0.00 0.00 38 88.8
20260503223012 65 0 30.0 30.0 0.00 0.00 0.00 38 88.8
20260503222012 65 338 31.0 31.0 0.00 0.00 0.00 37 88.8
20260503221011 66 22 29.0 29.0 0.00 0.00 0.00 36 88.8
20260503220012 67 338 27.0 27.0 0.00 0.00 0.00 35 88.8
20260503215011 67 0 27.0 27.0 0.00 0.00 0.00 36 88.8
20260503214012 67 338 30.0 30.0 0.00 0.00 0.00 39 88.8
20260503213012 68 22 22.0 22.0 0.00 0.00 0.00 39 88.8
20260503212011 68 315 27.0 27.0 0.00 0.00 0.00 41 88.8
20260503211011 69 315 26.0 26.0 0.00 0.00 0.00 41 88.8
20260503210012 70 292 25.0 25.0 0.00 0.00 0.00 40 88.8
20260503205012 70 338 21.0 21.0 0.00 0.00 0.00 40 88.8
20260503204011 70 338 25.0 25.0 0.00 0.00 0.00 39 88.8
20260503203012 71 292 30.0 30.0 0.00 0.00 0.00 39 88.8
20260503202011 71 270 23.0 23.0 0.00 0.00 0.00 39 88.8
20260503201012 72 292 22.0 22.0 0.00 0.00 0.00 37 88.8
20260503200012 72 292 22.0 22.0 0.00 0.00 0.00 37 88.8
20260503195011 71 270 20.0 20.0 0.00 0.00 0.00 38 88.8
20260503194012 70 292 29.0 29.0 0.00 0.00 0.00 37 88.8
20260503193011 70 292 27.0 27.0 0.00 0.00 0.00 38 88.8
20260503192012 70 292 28.0 28.0 0.00 0.00 0.00 38 88.8
20260503191011 70 292 22.0 22.0 0.00 0.00 0.00 38 88.8
20260503190012 70 292 23.0 23.0 0.00 0.00 0.00 38 88.8
20260503185012 70 292 26.0 26.0 0.00 0.00 0.00 37 88.8
20260503184011 70 270 17.0 17.0 0.00 0.00 0.00 37 88.8
20260503183012 69 315 22.0 22.0 0.00 0.00 0.00 38 88.8
20260503182012 69 292 24.0 24.0 0.00 0.00 0.00 39 88.8
20260503181011 69 292 26.0 26.0 0.00 0.00 0.00 39 88.8
20260503180012 69 315 24.0 24.0 0.00 0.00 0.00 40 88.8
20260503175012 68 292 21.0 21.0 0.00 0.00 0.00 40 88.8
20260503174011 68 292 17.0 17.0 0.00 0.00 0.00 41 88.8
20260503173012 67 292 21.0 21.0 0.00 0.00 0.00 41 88.8
20260503172012 67 292 13.0 13.0 0.00 0.00 0.00 42 88.8
20260503171011 66 270 12.0 12.0 0.00 0.00 0.00 42 88.8
20260503151011 59 270 16.0 16.0 0.00 0.00 0.00 57 88.8
20260503131012 54 225 12.0 12.0 0.00 0.00 0.00 60 88.8
20260503081011 44 270 7.0 7.0 0.00 0.00 0.00 55 88.8
20260503072011 45 270 7.0 7.0 0.00 0.00 0.00 57 88.8
20260503071011 45 270 6.0 6.0 0.00 0.00 0.00 58 88.8
20260503055011 46 270 6.0 6.0 0.00 0.00 0.00 52 88.8
20260503054011 45 270 5.0 5.0 0.00 0.00 0.00 52 88.8
20260503053012 43 270 7.0 7.0 0.00 0.00 0.00 52 88.8
20260503052012 40 270 5.0 5.0 0.00 0.00 0.00 53 88.8
20260503051012 39 270 4.0 4.0 0.00 0.00 0.00 52 88.8
20260503050012 38 270 4.0 4.0 0.00 0.00 0.00 52 88.8
20260503045012 39 270 4.0 4.0 0.00 0.00 0.00 57 88.8
20260503044012 39 270 0.0 0.0 0.00 0.00 0.00 54 88.8
20260503043012 39 270 5.0 5.0 0.00 0.00 0.00 52 88.8
20260503042012 39 248 0.0 0.0 0.00 0.00 0.00 64 88.8
20260503041011 40 270 0.0 0.0 0.00 0.00 0.00 61 88.8
20260503040012 40 270 0.0 0.0 0.00 0.00 0.00 60 88.8
20260503035012 41 248 1.0 1.0 0.00 0.00 0.00 56 88.8
20260503034010 41 112 0.0 0.0 0.00 0.00 0.00 56 88.8
20260503033012 42 270 3.0 3.0 0.00 0.00 0.00 51 88.8
20260503032012 43 270 5.0 5.0 0.00 0.00 0.00 51 88.8
20260503031011 0 0 0.0 0.0 0.00 0.00 0.00 100
20260503030011 45 270 4.0 4.0 0.00 0.00 0.00 48 88.8
20260503025012 47 270 4.0 4.0 0.00 0.00 0.00 48 88.8